When you browse on this site, cookies collect data to enhance your experience and personalize the content and advertising you see.
Visit our Privacy Policy to learn more. By continuing to use the site, you agree to this use of cookies and data.
  • In Latvia
  • List of Countries
  • For 7 days
  • Water Temperature
  • Satellite Maps
  • Weather Map
  • Weather Widgets
  • user-avatar
    Login

    Hourly Weather Renens

    Today, 19 July, Friday

    Time Temperature Precipitation Wind Pressure Humidity
    00:00 +18°C° 0 mm 1 mps 724 mmHg 86%
    01:00 +18°C° 0 mm 1 mps 724 mmHg 88%
    02:00 +18°C° 0 mm 1 mps 724 mmHg 89%
    03:00 +16°C° 0 mm 1 mps 725 mmHg 90%
    04:00 +18°C° 0 mm 1 mps 725 mmHg 88%
    05:00 +19°C° 0 mm 1 mps 725 mmHg 86%
    06:00 +18°C° 0 mm 0 mps 725 mmHg 85%
    07:00 +22°C° 0 mm 1 mps 725 mmHg 77%
    08:00 +24°C° 0 mm 1 mps 725 mmHg 70%
    09:00 +25°C° 0 mm 1 mps 725 mmHg 62%
    10:00 +26°C° 0 mm 1 mps 725 mmHg 59%
    11:00 +27°C° 0 mm 1 mps 725 mmHg 56%
    12:00 +28°C° 0 mm 2 mps 725 mmHg 53%
    13:00 +28°C° 0 mm 1 mps 724 mmHg 53%
    14:00 +28°C° 0 mm 1 mps 724 mmHg 52%
    15:00 +28°C° 0 mm 1 mps 724 mmHg 52%
    16:00 +28°C° 0 mm 1 mps 724 mmHg 58%
    17:00 +27°C° 0 mm 1 mps 724 mmHg 64%
    18:00 +24°C° 0 mm 0 mps 724 mmHg 70%
    19:00 +24°C° 0 mm 1 mps 724 mmHg 73%
    20:00 +22°C° 0 mm 1 mps 724 mmHg 76%
    21:00 +20°C° 0 mm 1 mps 724 mmHg 80%
    22:00 +20°C° 0 mm 1 mps 724 mmHg 81%
    23:00 +20°C° 0 mm 1 mps 724 mmHg 82%

    Tomorrow, 20 July, Saturday

    Time Temperature Precipitation Wind Pressure Humidity
    00:00 +19°C° 0 mm 1 mps 724 mmHg 83%
    01:00 +19°C° 0 mm 1 mps 724 mmHg 84%
    02:00 +19°C° 0 mm 1 mps 724 mmHg 84%
    03:00 +19°C° 0 mm 1 mps 724 mmHg 84%
    04:00 +20°C° 0 mm 1 mps 724 mmHg 82%
    05:00 +21°C° 0 mm 1 mps 724 mmHg 79%
    06:00 +22°C° 0 mm 1 mps 724 mmHg 77%
    07:00 +24°C° 0 mm 1 mps 725 mmHg 70%
    08:00 +26°C° 0 mm 2 mps 725 mmHg 63%
    09:00 +27°C° 0 mm 2 mps 725 mmHg 56%
    10:00 +28°C° 0 mm 3 mps 725 mmHg 52%
    11:00 +29°C° 0 mm 3 mps 725 mmHg 49%
    12:00 +30°C° 0 mm 3 mps 725 mmHg 45%
    13:00 +31°C° 0 mm 3 mps 725 mmHg 45%
    14:00 +31°C° 0 mm 3 mps 725 mmHg 45%
    15:00 +31°C° 0 mm 3 mps 725 mmHg 45%
    16:00 +30°C° 0 mm 2 mps 725 mmHg 52%
    17:00 +29°C° 0 mm 2 mps 725 mmHg 59%
    18:00 +27°C° 0 mm 2 mps 725 mmHg 67%
    19:00 +26°C° 0 mm 2 mps 726 mmHg 68%
    20:00 +24°C° 0 mm 2 mps 726 mmHg 69%
    21:00 +23°C° 0 mm 2 mps 726 mmHg 71%
    22:00 +21°C° 0.2 mm 2 mps 727 mmHg 75%
    23:00 +21°C° 0.2 mm 2 mps 727 mmHg 80%

    Day after tomorrow, 21 July, Sunday

    Time Temperature Precipitation Wind Pressure Humidity
    00:00 +20°C° 0.2 mm 2 mps 727 mmHg 85%
    01:00 +20°C° 0.2 mm 2 mps 727 mmHg 86%
    02:00 +19°C° 0.2 mm 2 mps 727 mmHg 88%
    03:00 +19°C° 0.2 mm 2 mps 727 mmHg 90%
    04:00 +21°C° 0.1 mm 1 mps 727 mmHg 89%
    05:00 +22°C° 0.1 mm 1 mps 728 mmHg 87%
    06:00 +23°C° 0.1 mm 1 mps 728 mmHg 86%
    07:00 +24°C° 0.2 mm 1 mps 728 mmHg 80%
    08:00 +26°C° 0.2 mm 1 mps 728 mmHg 74%
    09:00 +28°C° 0.2 mm 1 mps 729 mmHg 68%
    10:00 +29°C° 0.1 mm 1 mps 729 mmHg 63%
    11:00 +30°C° 0.1 mm 1 mps 729 mmHg 58%
    12:00 +31°C° 0.1 mm 1 mps 729 mmHg 53%
    13:00 +31°C° 0.1 mm 1 mps 729 mmHg 54%
    14:00 +31°C° 0.1 mm 1 mps 728 mmHg 55%
    15:00 +31°C° 0.1 mm 1 mps 728 mmHg 56%
    16:00 +30°C° 0.2 mm 1 mps 729 mmHg 64%
    17:00 +28°C° 0.2 mm 1 mps 729 mmHg 72%
    18:00 +27°C° 0.2 mm 1 mps 729 mmHg 80%
    19:00 +26°C° 0.1 mm 1 mps 729 mmHg 82%
    20:00 +24°C° 0.1 mm 1 mps 729 mmHg 84%
    21:00 +23°C° 0.1 mm 1 mps 730 mmHg 86%
    22:00 +23°C° 0.1 mm 1 mps 730 mmHg 88%
    23:00 +22°C° 0.1 mm 1 mps 729 mmHg 89%

    22 July, Monday

    Time Temperature Precipitation Wind Pressure Humidity
    00:00 +21°C° 0.1 mm 2 mps 729 mmHg 91%
    01:00 +21°C° 0.1 mm 1 mps 729 mmHg 91%
    02:00 +21°C° 0.1 mm 1 mps 729 mmHg 91%
    03:00 +21°C° 0.1 mm 1 mps 729 mmHg 91%
    04:00 +22°C° 0 mm 1 mps 729 mmHg 90%
    05:00 +22°C° 0 mm 1 mps 730 mmHg 88%
    06:00 +23°C° 0 mm 1 mps 730 mmHg 87%
    07:00 +25°C° 0 mm 1 mps 730 mmHg 80%
    08:00 +27°C° 0 mm 1 mps 730 mmHg 72%
    09:00 +29°C° 0 mm 1 mps 730 mmHg 65%
    10:00 +30°C° 0 mm 1 mps 730 mmHg 61%
    11:00 +31°C° 0 mm 1 mps 730 mmHg 58%
    12:00 +32°C° 0 mm 1 mps 729 mmHg 55%
    13:00 +32°C° 0 mm 1 mps 729 mmHg 53%
    14:00 +32°C° 0 mm 1 mps 729 mmHg 52%
    15:00 +33°C° 0 mm 1 mps 729 mmHg 51%
    16:00 +31°C° 0 mm 1 mps 729 mmHg 59%
    17:00 +30°C° 0 mm 1 mps 729 mmHg 66%
    18:00 +29°C° 0 mm 1 mps 729 mmHg 73%
    19:00 +28°C° 0 mm 1 mps 729 mmHg 74%
    20:00 +26°C° 0 mm 1 mps 729 mmHg 76%
    21:00 +25°C° 0 mm 1 mps 729 mmHg 77%
    22:00 +24°C° 0 mm 1 mps 729 mmHg 79%
    23:00 +24°C° 0 mm 2 mps 729 mmHg 81%

    23 July, Tuesday

    Time Temperature Precipitation Wind Pressure Humidity
    00:00 +23°C° 0 mm 2 mps 729 mmHg 83%
    01:00 +23°C° 0 mm 1 mps 729 mmHg 84%
    02:00 +22°C° 0 mm 1 mps 728 mmHg 85%
    03:00 +22°C° 0 mm 1 mps 728 mmHg 86%
    04:00 +23°C° 0 mm 1 mps 728 mmHg 84%
    05:00 +22°C° 0 mm 0 mps 728 mmHg 82%
    06:00 +23°C° 0 mm 0 mps 728 mmHg 80%
    07:00 +25°C° 0 mm 0 mps 728 mmHg 73%
    08:00 +29°C° 0 mm 1 mps 728 mmHg 66%
    09:00 +31°C° 0 mm 1 mps 728 mmHg 58%
    10:00 +32°C° 0 mm 1 mps 728 mmHg 55%
    11:00 +33°C° 0 mm 1 mps 727 mmHg 51%
    12:00 +34°C° 0 mm 1 mps 727 mmHg 47%
    13:00 +34°C° 0 mm 1 mps 727 mmHg 46%
    14:00 +34°C° 0 mm 1 mps 727 mmHg 44%
    15:00 +34°C° 0 mm 1 mps 726 mmHg 43%
    16:00 +33°C° 0 mm 1 mps 726 mmHg 51%
    17:00 +31°C° 0 mm 1 mps 726 mmHg 59%
    18:00 +30°C° 0 mm 1 mps 726 mmHg 67%
    19:00 +28°C° 0 mm 1 mps 726 mmHg 69%
    20:00 +27°C° 0 mm 1 mps 726 mmHg 72%
    21:00 +25°C° 0 mm 1 mps 726 mmHg 74%
    22:00 +25°C° 0 mm 1 mps 726 mmHg 74%
    23:00 +24°C° 0 mm 1 mps 726 mmHg 75%

    24 July, Wednesday

    Time Temperature Precipitation Wind Pressure Humidity
    00:00 +24°C° 0 mm 1 mps 726 mmHg 75%
    01:00 +23°C° 0 mm 1 mps 726 mmHg 76%
    02:00 +23°C° 0 mm 1 mps 725 mmHg 76%
    03:00 +22°C° 0 mm 1 mps 725 mmHg 77%
    04:00 +21°C° 0 mm 0 mps 725 mmHg 76%
    05:00 +22°C° 0 mm 0 mps 725 mmHg 75%
    06:00 +23°C° 0 mm 0 mps 725 mmHg 74%
    07:00 +25°C° 0 mm 0 mps 725 mmHg 67%
    08:00 +29°C° 0 mm 1 mps 725 mmHg 61%
    09:00 +31°C° 0 mm 1 mps 725 mmHg 54%
    10:00 +32°C° 0 mm 1 mps 724 mmHg 51%
    11:00 +33°C° 0 mm 1 mps 724 mmHg 47%
    12:00 +34°C° 0 mm 1 mps 724 mmHg 44%
    13:00 +34°C° 0 mm 1 mps 723 mmHg 43%
    14:00 +34°C° 0 mm 1 mps 723 mmHg 43%
    15:00 +34°C° 0 mm 1 mps 722 mmHg 42%
    16:00 +33°C° 0 mm 1 mps 722 mmHg 49%
    17:00 +29°C° 0 mm 0 mps 722 mmHg 56%
    18:00 +28°C° 0 mm 0 mps 722 mmHg 63%
    19:00 +29°C° 0 mm 1 mps 722 mmHg 63%
    20:00 +28°C° 0 mm 1 mps 722 mmHg 62%
    21:00 +26°C° 0 mm 1 mps 722 mmHg 62%
    22:00 +26°C° 0.2 mm 1 mps 722 mmHg 65%
    23:00 +25°C° 0.2 mm 1 mps 722 mmHg 69%
    Show more